Wind_Speed
10 11 12 13 13 14 15 15 16 16 17 18 19 19 20 21 21 22 21 21 21 21 21 21 21 22 23 24 24 24 23 23 22 22 22 22 22 21 21 21 21 21 21 21 21 21 21 21 21 21 21 21 21 21 21 21 21 21 22 22 22 23 23 23 24 24 24 25 25 25 25 25 26 26 26 27 27 28 28 28 29 29 29 29 29 30
10 11 12 13 13 13 14 15 15 16 16 17 18 18 18 20 22 23 22 21 21 21 21 21 22 23 24 25 25 25 24 23 22 22 22 22 22 22 21 21 21 21 21 21 21 21 21 21 20 20 20 20 20 21 21 21 21 22 22 22 22 23 23 24 24 24 25 25 25 26 26 26 26 27 27 28 28 28 29 29 30 30 30 30 30 30
11 11 11 12 12 12 13 14 15 16 17 17 18 19 20 21 22 22 22 21 21 20 21 21 22 23 24 25 26 25 24 23 22 22 22 22 22 22 22 22 21 21 21 21 20 20 20 20 20 20 20 20 20 21 21 21 21 22 22 22 23 23 24 24 24 25 25 26 26 26 26 27 27 27 28 28 28 29 29 30 30 30 30 30 30 30
11 11 11 12 12 12 13 13 14 16 17 18 19 20 21 21 21 21 21 21 21 21 21 22 23 24 25 25 25 25 24 23 22 22 22 22 22 22 21 21 21 20 20 20 20 20 20 20 20 20 20 20 21 21 21 22 22 22 23 23 23 24 24 25 25 26 26 26 27 27 27 27 28 28 28 28 28 29 29 29 29 29 29 29 30 30
11 11 11 11 11 12 13 14 15 16 17 18 19 19 19 19 19 19 20 20 21 21 21 21 21 22 24 25 25 25 24 22 22 21 21 21 20 20 20 20 19 19 19 19 20 20 20 20 20 20 21 21 21 22 22 22 23 23 23 24 24 25 25 26 26 27 27 27 28 28 28 28 28 28 28 28 28 28 28 28 28 29 29 29 29 29
12 11 11 11 11 12 13 15 15 16 16 17 17 17 16 17 18 18 18 19 19 19 19 19 20 22 23 24 24 24 23 22 22 21 21 20 19 19 18 18 19 19 19 19 20 20 20 20 21 21 21 22 22 23 23 23 24 24 24 25 25 25 26 26 26 27 27 27 27 27 27 27 27 27 27 27 27 27 27 28 28 28 28 28 28 28
12 12 12 13 13 14 14 15 15 15 15 15 16 16 15 15 15 16 16 17 18 18 19 19 20 20 21 22 23 23 23 22 22 21 20 19 19 18 18 18 19 19 20 20 20 21 21 21 21 22 22 23 23 24 24 24 25 25 25 25 25 25 26 26 26 26 26 26 26 26 26 26 26 27 27 27 27 27 27 27 27 27 27 27 28 28
12 13 13 13 13 14 14 14 13 14 14 15 16 15 15 14 14 14 15 17 17 18 18 19 19 19 18 19 20 21 21 21 21 20 19 19 18 18 18 19 19 20 20 20 21 21 21 22 22 23 23 24 24 25 25 25 25 25 25 25 25 25 25 25 25 25 25 25 25 25 25 25 25 25 26 26 26 26 26 26 26 26 27 27 27 27
12 12 12 12 12 12 13 13 13 13 15 16 15 14 14 13 14 14 15 15 16 16 17 18 18 18 18 18 18 19 19 19 19 18 18 18 18 18 19 19 20 20 20 21 21 22 22 23 23 24 24 25 25 25 25 25 25 25 25 25 25 24 24 24 24 24 24 24 24 24 24 24 24 25 25 25 25 25 26 26 26 26 27 27 27 27
12 12 11 11 12 12 12 13 13 14 15 15 14 13 13 13 14 15 16 16 16 16 16 16 17 17 18 19 19 18 18 18 18 18 18 18 19 19 19 20 20 20 21 21 22 23 23 23 24 24 25 25 25 25 25 25 25 24 24 24 24 24 24 24 24 24 24 24 24 24 24 24 24 24 24 25 25 25 26 26 27 27 27 27 28 28
11 11 11 11 12 12 12 13 14 15 14 14 13 12 12 12 13 15 17 18 18 17 16 16 16 17 18 19 19 19 19 18 18 18 18 18 19 19 19 20 20 21 21 22 23 23 24 24 24 24 25 25 25 25 25 24 24 24 24 24 24 24 24 24 24 24 23 24 24 24 24 24 24 25 25 25 26 26 26 27 27 27 28 28 28 28
9 10 10 10 11 11 11 12 13 12 11 10 10 10 11 11 12 14 17 18 18 17 17 16 16 17 18 19 19 19 18 18 18 18 18 18 18 18 18 19 19 20 21 22 22 23 23 23 23 24 24 25 24 24 24 24 24 24 24 24 24 24 24 24 24 24 24 24 24 24 25 25 25 25 26 26 26 27 27 28 28 28 29 29 29 29
9 9 10 10 10 10 10 12 11 10 8 7 8 10 12 14 14 15 16 17 17 17 16 17 17 17 18 18 18 18 18 17 17 17 17 17 17 17 17 18 19 20 20 21 21 22 22 22 23 23 23 24 25 25 25 25 25 25 25 24 24 24 24 24 24 25 25 25 25 25 26 26 26 26 26 27 27 27 28 28 28 29 29 29 29 29
8 9 9 9 10 10 11 11 10 9 8 8 10 12 14 16 16 16 16 16 16 16 16 17 18 18 18 17 17 17 16 17 17 17 17 17 17 17 18 19 19 20 21 21 21 21 22 22 22 22 24 24 25 25 25 25 25 25 25 25 25 25 25 25 26 26 26 26 26 26 26 27 27 27 27 27 27 27 28 28 28 29 29 29 30 30
8 8 8 9 10 11 10 9 8 8 9 11 12 14 15 16 15 14 14 15 15 16 16 17 17 18 17 16 15 15 15 16 16 17 18 18 18 18 19 19 20 20 21 21 21 21 22 21 21 22 24 25 25 25 25 25 25 25 26 26 26 26 26 26 26 27 27 27 27 27 27 27 27 27 27 27 27 28 28 28 28 29 29 29 30 30
8 8 9 11 11 10 9 8 8 10 12 13 14 15 15 14 14 13 14 14 15 15 15 16 17 17 17 16 15 14 14 14 15 17 19 20 20 19 19 19 20 20 20 21 21 21 21 21 21 22 23 24 25 26 26 26 26 27 27 27 27 27 27 27 27 27 27 27 27 27 27 27 27 27 27 28 28 28 28 28 28 29 29 29 30 30
8 8 9 10 9 9 9 9 10 12 13 14 14 14 13 13 13 13 14 14 15 15 14 14 13 13 14 17 16 14 14 14 16 17 19 21 21 21 19 19 19 19 20 20 20 20 21 21 21 22 24 25 26 27 27 27 27 28 28 28 28 28 28 28 28 28 28 27 27 27 27 27 27 27 28 28 28 28 28 28 28 29 29 29 29 30
8 8 8 8 9 10 11 12 13 13 14 14 13 13 13 13 14 14 14 15 15 14 14 13 13 12 12 15 17 17 16 16 17 18 20 21 22 21 19 18 18 19 19 19 20 20 21 21 22 23 25 26 27 27 28 28 29 29 29 29 28 28 28 28 28 28 28 28 28 28 28 28 27 27 28 28 28 28 28 28 28 28 28 29 29 29
9 9 9 10 11 12 13 13 13 13 13 13 13 14 14 14 14 15 15 15 14 14 13 13 14 15 15 18 19 20 19 18 18 19 19 21 22 21 19 18 18 18 19 20 20 21 21 22 23 25 26 26 27 28 28 28 29 29 29 29 29 29 29 29 29 29 29 29 29 28 28 28 28 28 28 28 28 28 28 28 28 28 28 28 29 29
11 11 11 12 13 14 14 13 13 13 13 13 14 15 15 16 16 16 16 15 14 13 12 13 14 16 18 20 22 22 20 19 18 17 19 20 21 21 19 17 17 18 19 20 21 21 21 22 23 24 25 26 26 27 27 28 29 29 29 29 29 29 29 29 29 29 29 29 29 29 28 28 28 28 28 28 28 28 28 28 28 28 28 28 29 29
13 13 13 13 13 13 13 13 13 13 14 15 16 16 17 17 16 16 15 14 13 12 12 13 16 17 19 21 23 23 21 19 17 17 17 19 20 20 18 16 16 17 19 20 21 21 21 22 23 24 25 25 26 27 28 28 29 29 29 29 29 29 29 29 29 29 29 29 29 29 28 28 28 28 28 28 28 28 28 28 28 28 29 29 29 29
13 14 13 13 12 13 13 14 15 16 17 19 19 18 17 16 15 14 13 12 12 13 14 16 18 20 22 23 24 23 20 17 15 15 16 17 19 20 18 16 16 17 19 20 20 20 21 22 23 24 25 26 27 27 28 28 29 29 29 29 29 29 29 29 29 29 29 29 29 29 29 28 28 28 28 28 28 28 28 28 29 29 29 29 29 29
14 13 13 12 13 13 14 16 17 18 19 20 20 19 18 17 15 14 13 13 14 16 18 19 21 22 23 22 22 21 19 16 14 13 13 14 17 18 17 16 16 18 19 20 20 21 21 22 23 24 25 26 26 27 28 28 28 29 29 29 29 29 29 29 29 29 29 29 29 29 29 29 29 28 28 28 28 28 28 28 28 28 28 28 29 29
12 12 13 13 14 16 17 18 18 19 19 19 19 18 17 15 14 15 16 17 17 18 19 20 21 21 20 20 20 18 16 14 12 12 12 14 16 18 18 17 17 18 20 20 21 21 22 23 24 24 25 25 26 26 27 27 28 28 28 29 29 29 29 29 28 28 28 28 29 29 29 29 29 29 29 29 29 28 28 28 28 28 28 28 28 29
12 13 14 15 15 16 16 16 17 17 16 15 14 13 13 14 16 17 18 19 18 18 17 17 17 18 18 18 17 16 15 13 12 12 12 14 16 19 18 17 17 18 20 21 21 21 22 23 24 24 24 25 25 26 26 27 27 27 28 28 28 28 28 28 28 28 28 29 29 29 29 30 29 29 29 29 29 28 28 28 28 28 28 28 29 29
12 12 12 13 13 13 14 14 14 15 16 16 17 17 18 18 18 18 18 18 17 15 14 14 14 15 16 16 15 15 14 13 12 12 12 14 16 18 19 18 17 19 21 22 22 21 22 24 24 25 24 25 25 25 25 26 26 27 27 27 28 28 28 28 28 29 29 29 30 30 30 29 29 29 29 29 28 28 28 28 28 28 28 28 28 29
11 11 11 11 12 13 14 15 16 17 18 18 19 19 18 17 17 17 16 15 14 12 12 12 12 13 15 15 15 15 15 14 13 12 13 14 16 17 18 18 18 19 20 22 22 22 22 24 25 25 24 24 24 24 24 25 25 26 27 27 28 28 29 29 29 29 29 30 29 29 29 29 29 29 28 28 28 28 28 28 27 27 28 28 28 28
12 11 12 12 13 14 16 17 18 20 20 20 20 18 16 15 14 14 14 13 12 11 11 11 11 11 12 14 15 17 17 15 14 13 13 13 14 15 18 18 18 19 20 21 22 23 22 23 23 23 23 23 23 23 23 24 25 26 27 28 28 29 29 29 29 29 29 29 28 28 28 28 28 28 28 28 28 28 28 27 27 27 27 27 26 25
13 14 14 15 16 17 19 20 21 22 21 20 18 15 13 12 12 12 12 12 11 11 12 12 12 12 12 15 17 18 18 15 13 12 11 11 13 15 18 18 18 19 19 20 22 23 22 21 20 20 20 21 21 22 23 24 25 26 27 28 28 28 28 28 27 27 27 28 28 28 28 28 28 28 28 28 28 28 27 27 27 26 26 25 24 24
14 15 16 17 18 19 20 21 21 20 18 15 12 11 10 11 11 12 12 12 11 11 12 12 12 13 13 14 15 15 14 12 11 10 10 11 13 16 18 18 18 18 18 17 16 16 18 20 19 18 18 20 21 23 23 24 25 25 25 26 26 26 26 26 26 26 27 27 28 28 28 28 28 28 27 27 27 27 27 27 26 25 24 23 23 22
16 17 18 20 20 21 20 19 18 16 13 11 9 9 9 10 11 12 12 11 11 11 12 12 13 13 13 12 9 7 8 11 12 11 11 12 14 16 18 18 18 19 18 15 9 6 11 17 20 20 19 21 23 24 25 24 24 24 24 25 25 25 26 26 26 26 27 27 27 27 27 27 27 27 27 27 27 27 27 26 25 24 23 22 22 22
19 20 20 21 21 20 18 16 14 12 11 10 9 9 9 10 10 10 10 10 10 11 12 13 13 14 14 13 10 9 12 15 16 14 14 13 15 17 18 17 18 19 18 16 13 9 7 11 18 24 23 23 24 25 25 24 24 23 24 24 25 25 26 25 25 26 26 26 26 26 27 27 27 27 27 27 27 26 26 26 25 24 23 22 22 22
20 21 21 21 20 18 15 13 11 11 11 11 10 10 9 9 9 9 10 10 11 11 12 13 14 14 15 15 16 17 19 19 19 17 15 14 14 16 18 18 18 19 19 18 17 16 13 15 20 25 26 25 25 24 24 24 23 23 23 23 24 25 25 25 25 25 25 25 26 26 26 26 26 26 26 26 26 26 26 25 24 23 22 21 22 22
21 21 21 20 18 15 13 11 11 11 11 10 9 9 9 9 9 9 10 11 12 12 13 13 14 15 15 16 17 19 20 20 18 16 14 14 15 16 19 19 19 19 19 18 19 19 19 20 21 22 23 25 26 25 24 23 23 22 22 22 23 24 24 24 24 24 24 24 25 25 25 25 25 25 25 25 25 25 24 24 23 23 22 22 22 22
21 20 18 16 14 13 12 11 11 10 9 9 9 9 9 9 10 10 11 12 12 13 14 15 15 16 16 16 17 18 20 20 18 17 15 16 17 18 19 19 19 19 18 18 19 18 18 20 22 22 22 24 26 26 24 23 22 22 22 22 23 23 23 24 24 24 24 24 24 25 25 25 25 25 25 25 25 24 24 23 23 23 23 23 23 23
17 15 13 12 11 10 10 10 9 9 9 9 9 9 10 10 11 11 12 12 13 14 15 16 17 17 18 18 19 20 22 22 21 20 18 18 19 19 20 20 20 19 18 19 19 18 18 20 21 22 22 22 23 24 25 24 23 22 23 23 23 23 24 24 24 23 24 24 24 24 24 24 24 24 24 25 25 25 25 25 25 25 25 25 25 25
12 11 10 9 9 9 9 9 9 9 10 10 10 10 11 11 12 12 13 14 14 15 16 17 18 18 19 20 22 23 24 24 24 23 23 22 22 22 21 21 21 20 19 19 19 20 19 19 21 22 21 20 20 21 24 25 25 24 24 24 24 24 24 24 23 23 23 23 24 24 24 24 24 24 24 25 25 25 25 25 25 25 25 25 25 25
10 9 9 9 9 10 10 10 10 10 10 11 11 12 13 13 13 14 14 15 15 16 16 17 18 19 19 20 22 25 26 27 28 28 27 26 25 25 23 23 23 22 20 20 20 20 19 18 16 15 17 20 22 24 25 26 26 25 25 25 25 25 25 24 23 22 22 22 23 24 24 24 24 24 24 24 24 23 24 24 24 24 24 24 24 24
9 9 9 10 10 10 10 10 11 11 12 12 13 14 14 14 14 14 14 14 15 15 16 17 18 19 20 22 23 24 25 26 28 28 28 27 26 25 24 23 23 23 22 22 21 20 19 19 17 16 16 19 22 25 26 25 25 25 26 27 27 26 25 23 22 21 21 22 23 24 24 24 23 23 23 23 22 22 22 23 23 23 22 21 21 22
9 10 10 10 10 10 11 11 12 13 13 14 14 15 14 14 14 14 14 14 14 15 16 17 18 19 20 21 21 22 23 24 25 26 26 26 26 25 25 24 24 24 23 23 22 21 20 20 21 22 22 21 22 24 25 26 26 26 26 25 25 26 26 24 23 23 23 23 23 23 23 23 22 22 22 22 22 22 22 22 22 22 21 20 20 20
10 10 10 10 11 11 12 12 13 13 14 14 14 14 13 13 13 13 14 14 14 14 15 16 17 18 19 20 20 20 21 22 23 23 24 24 25 25 25 25 25 24 23 23 22 22 21 21 22 23 23 23 24 25 26 27 27 27 26 24 24 27 28 27 26 24 23 23 22 22 22 22 23 22 22 22 22 22 22 22 22 22 22 21 20 20
10 10 11 11 11 12 12 13 13 13 13 13 13 12 12 12 13 13 14 14 15 15 15 15 16 18 19 20 19 19 19 20 21 21 22 22 23 23 24 25 25 25 24 23 23 23 23 23 23 23 24 24 24 24 25 27 28 27 26 25 26 27 28 27 25 23 21 21 21 22 22 22 23 23 23 23 22 23 22 22 23 23 23 22 22 22
10 10 11 12 12 13 13 13 13 12 12 12 12 12 12 12 13 13 14 14 15 16 15 16 16 18 19 20 20 20 19 18 18 19 19 20 21 22 23 24 25 25 25 24 23 23 23 23 23 23 24 23 23 24 25 27 28 28 26 25 25 23 21 24 24 23 22 22 23 23 23 23 23 23 23 23 23 23 23 23 24 24 24 23 23 23
11 11 12 12 12 13 13 12 12 12 12 12 13 13 13 13 13 13 14 14 15 16 16 16 17 18 18 20 21 21 20 19 18 17 17 18 19 20 21 22 23 24 25 24 23 23 24 24 24 24 24 23 23 24 25 27 28 28 27 26 25 23 22 24 25 26 25 25 24 24 24 24 24 24 24 24 23 23 23 23 23 24 24 24 24 24
11 11 11 12 12 12 12 13 13 13 13 13 13 13 13 13 13 13 14 14 15 15 16 16 16 16 17 19 20 20 21 20 19 18 17 17 18 18 19 20 22 23 23 24 24 24 23 23 24 25 24 23 23 23 24 26 27 27 28 27 26 25 26 26 26 25 25 25 25 25 25 24 24 24 24 24 24 24 23 23 23 24 24 25 25 25
10 11 11 12 12 12 13 13 13 13 13 13 13 13 13 13 13 13 14 14 15 15 16 15 15 15 16 18 19 20 21 22 22 21 19 19 18 18 18 19 19 21 22 23 24 24 25 25 26 26 25 24 24 24 25 25 25 26 27 27 26 25 26 26 25 25 24 24 25 25 25 25 24 23 23 24 24 24 24 23 23 24 24 25 25 25
10 11 11 12 12 13 13 13 13 13 13 13 13 13 13 13 13 14 14 14 14 14 15 15 15 15 16 18 18 19 20 21 23 23 22 21 21 20 18 18 18 19 21 22 23 25 26 27 28 27 25 24 24 25 26 26 25 25 25 26 26 25 25 26 26 26 25 25 25 26 26 25 25 25 25 25 25 25 24 24 23 23 24 24 24 24
10 11 12 12 13 13 13 13 13 13 13 13 14 14 13 13 13 13 14 14 14 14 15 15 15 16 17 18 18 18 19 20 21 23 23 23 23 22 21 20 20 20 21 21 22 23 24 26 27 27 26 25 24 24 26 26 25 24 25 25 25 25 25 27 27 27 26 25 26 27 27 25 23 24 24 25 25 25 25 24 24 24 23 23 23 24
10 11 12 12 13 13 13 13 13 13 13 14 14 14 14 13 13 13 13 14 14 14 15 15 16 16 17 17 18 18 19 20 20 22 22 23 23 22 22 22 22 22 22 22 22 22 23 24 25 25 25 25 25 25 26 26 26 25 25 24 24 24 25 26 28 27 26 26 27 27 26 24 24 24 24 23 24 25 26 26 25 24 23 23 23 24
11 11 12 12 12 13 13 13 13 13 13 14 14 14 14 14 14 13 13 14 14 14 15 15 16 16 17 18 18 18 19 19 20 21 22 22 22 22 22 23 23 23 23 23 22 21 21 22 22 22 22 23 24 25 25 26 26 26 25 24 24 24 25 26 27 27 27 26 26 26 26 25 24 24 24 23 23 25 26 26 25 24 22 21 21 22
11 12 12 12 12 13 13 13 13 13 14 14 14 15 15 15 14 14 14 14 14 15 15 16 16 16 17 18 18 19 19 19 19 20 22 22 22 22 22 22 22 22 21 20 20 19 18 18 18 19 21 21 20 22 24 25 25 24 24 24 24 24 24 25 26 27 26 26 25 25 25 24 24 23 22 22 22 23 24 25 25 24 23 21 21 21
Wind_Direction
270 272 275 278 281 284 285 288 293 300 305 310 316 320 322 323 322 320 318 316 314 313 312 312 312 312 312 313 313 312 310 308 306 304 303 302 302 301 301 300 300 299 299 298 297 297 296 295 295 294 294 294 293 293 292 291 290 290 290 289 289 289 288 287 286 286 286 286 286 286 286 286 286 285 286 286 286 286 286 284 283 282 281 281 280 280
271 273 276 279 281 282 284 288 295 302 308 312 316 319 320 320 318 316 315 314 312 311 311 311 311 311 311 311 312 311 310 308 306 304 303 302 302 302 301 301 300 300 299 299 298 297 297 296 295 295 294 294 293 293 292 292 291 290 290 290 290 289 288 287 286 286 286 285 285 285 285 285 284 284 283 283 283 283 282 281 280 280 280 279 279 279
272 273 274 276 277 279 282 290 298 306 312 315 317 318 318 316 314 312 311 310 310 309 309 309 310 310 310 310 310 310 309 308 306 305 303 303 302 302 301 301 301 300 300 300 299 299 298 297 296 295 295 294 294 294 293 293 292 292 291 291 291 290 289 287 286 286 285 284 284 284 284 284 284 283 283 282 281 281 280 279 279 279 278 278 278 278
272 272 273 276 278 280 285 293 302 310 314 316 317 316 315 312 309 307 307 308 308 308 308 308 309 309 309 309 309 309 309 308 307 306 304 303 302 302 302 301 301 301 301 300 300 299 299 298 298 297 296 295 295 294 294 294 293 293 293 292 291 291 289 288 287 286 285 285 284 284 284 283 283 282 282 281 281 280 279 279 279 278 278 278 277 277
271 272 275 279 282 285 291 299 307 312 314 314 313 312 309 306 304 303 305 306 307 307 307 307 307 307 307 307 308 309 310 310 309 307 306 305 304 304 303 303 302 302 302 301 301 300 300 299 298 298 297 296 296 295 295 295 294 294 293 292 292 291 290 289 288 287 285 285 284 283 283 282 281 281 281 280 280 279 279 278 278 278 277 277 277 276
271 272 276 280 283 288 295 302 308 312 313 312 310 307 303 301 301 301 301 303 304 304 304 304 304 305 305 306 308 310 311 312 311 310 309 309 309 308 306 305 304 303 302 302 301 300 299 299 298 298 297 297 296 296 296 295 295 294 294 293 292 292 291 290 289 287 286 285 284 283 282 281 280 280 279 279 278 278 277 277 277 277 277 277 276 275
274 275 279 282 287 292 298 303 307 309 310 309 307 304 300 299 298 298 299 300 301 302 303 303 303 304 304 305 307 310 312 312 312 312 311 311 311 309 306 305 303 303 301 301 300 299 298 298 298 297 297 297 296 296 296 295 295 295 294 293 293 292 291 290 289 288 287 286 285 284 283 281 280 279 278 277 277 277 277 277 277 277 277 276 276 275
277 280 283 287 292 298 301 302 304 305 306 306 305 303 301 300 299 298 299 300 302 303 304 304 304 304 303 304 306 307 309 310 309 309 308 308 307 306 304 303 302 301 300 299 298 297 297 297 297 297 297 296 296 295 295 295 295 295 294 293 293 292 291 290 289 288 286 285 284 283 283 281 280 278 278 277 277 277 277 277 277 276 276 275 275 275
278 283 287 290 295 299 301 301 300 301 303 302 300 298 299 300 301 302 302 303 303 304 305 305 305 304 304 304 305 305 304 303 302 302 301 301 302 302 302 302 301 300 299 298 297 297 297 297 297 297 296 296 296 295 295 295 295 294 294 294 293 292 291 291 289 288 287 286 284 283 282 281 280 279 278 277 277 277 276 276 276 275 275 275 274 274
280 284 288 291 294 296 297 297 298 300 302 299 294 291 293 297 302 306 306 305 306 306 306 305 305 304 304 306 306 304 303 301 299 297 297 297 298 299 300 300 300 299 298 298 297 297 296 296 296 296 296 296 295 295 295 295 295 294 294 294 293 293 292 291 290 289 288 287 285 284 283 281 280 279 278 277 276 276 275 275 275 275 274 274 274 274
282 285 288 291 294 295 293 292 295 298 299 295 292 291 292 297 303 308 309 308 308 309 308 306 304 304 304 305 305 305 303 302 300 299 299 299 299 300 300 299 299 299 298 298 298 297 297 297 297 297 297 296 296 296 296 295 295 295 294 294 293 293 292 291 291 290 289 287 286 285 283 282 280 279 278 277 276 276 275 274 274 274 274 274 274 274
280 284 288 291 294 294 292 292 294 295 295 294 295 298 299 302 306 308 307 307 308 308 308 307 305 303 302 302 303 303 303 302 302 303 303 303 303 303 303 302 302 301 301 300 300 299 298 298 298 298 298 297 297 297 297 296 296 296 296 295 294 294 293 292 291 290 289 288 287 285 284 283 281 280 279 277 276 276 275 274 274 274 273 273 273 274
279 283 287 289 291 291 292 296 297 296 293 295 301 304 305 306 307 307 305 303 304 305 305 306 305 302 300 299 299 300 301 302 303 305 305 306 306 306 306 305 305 304 304 303 301 300 300 300 300 299 298 298 299 299 299 299 298 298 297 296 295 294 293 292 291 290 289 288 287 286 285 284 283 281 280 278 277 276 275 275 274 274 273 273 273 273
280 283 286 288 289 290 292 295 296 296 296 300 303 304 305 306 307 306 304 302 302 303 304 303 302 302 302 300 298 298 300 302 304 305 306 306 306 306 306 306 305 304 303 302 300 299 300 301 300 299 299 300 300 301 301 301 300 298 297 296 295 294 293 292 291 291 290 289 288 287 286 285 284 282 281 280 278 277 276 276 275 274 273 273 272 272
280 283 286 288 290 292 294 295 296 297 299 303 305 306 306 306 306 305 304 302 303 304 305 303 302 302 303 302 301 301 301 303 305 306 306 305 305 306 306 305 303 302 301 300 298 298 300 300 298 298 299 299 300 301 301 300 298 297 296 295 295 294 293 293 292 291 291 289 288 287 287 286 285 283 282 281 280 278 278 277 276 275 274 273 272 272
279 280 283 290 293 295 297 299 300 301 302 304 306 306 306 305 305 304 304 302 303 304 304 305 305 306 306 305 305 304 304 305 305 306 306 305 304 305 305 304 302 300 299 297 296 297 299 298 297 296 297 297 298 299 299 298 297 296 295 295 295 294 294 293 292 292 291 290 289 288 287 286 285 284 283 282 281 280 279 278 277 276 275 274 273 273
284 285 287 292 295 298 300 302 303 303 304 305 306 305 304 303 302 301 299 299 300 301 301 303 305 307 308 309 308 308 309 309 308 306 306 303 303 303 303 302 299 297 296 295 294 295 297 296 295 294 295 296 297 298 298 297 296 295 295 295 294 294 294 294 293 292 291 290 290 289 288 287 286 285 284 283 282 281 280 279 278 277 276 275 274 273
291 293 296 298 298 299 301 302 303 304 305 305 305 305 303 300 297 294 292 292 293 294 296 297 299 302 303 305 306 307 311 311 310 307 305 302 301 301 301 300 297 295 294 292 293 294 295 294 293 293 293 294 295 295 295 295 295 294 294 294 294 294 294 294 293 293 292 292 291 290 289 288 287 286 285 283 282 282 281 280 279 278 277 276 275 274
295 296 296 296 296 297 299 300 302 304 305 305 305 303 300 297 293 290 288 286 285 285 288 291 293 295 296 297 299 303 308 310 309 306 304 301 300 300 300 298 296 294 293 293 293 294 294 293 293 292 293 293 294 293 293 294 294 294 294 294 294 294 294 294 294 293 293 292 292 291 290 289 288 286 285 284 283 282 281 280 280 279 278 277 276 275
296 294 293 295 296 297 297 297 299 301 301 301 299 297 294 292 290 287 286 285 283 280 280 284 288 292 293 294 297 300 305 308 307 305 301 299 298 298 299 298 296 294 293 293 295 295 295 295 294 294 294 294 294 293 293 293 293 293 293 294 294 294 294 294 294 294 293 293 292 291 290 289 288 287 286 285 284 283 282 281 281 280 279 278 277 275
293 292 291 293 294 295 294 295 296 297 297 295 292 288 287 286 286 285 284 284 283 282 281 286 289 292 294 294 295 297 302 304 304 302 300 298 297 297 298 298 296 294 294 294 295 296 296 296 295 295 294 294 294 294 294 293 293 293 293 293 293 294 294 294 294 293 293 292 292 291 290 290 289 288 287 286 285 284 283 282 281 280 280 279 278 277
291 291 291 291 291 290 291 292 294 294 292 288 284 281 280 280 280 282 284 286 288 290 290 291 291 292 292 291 291 293 297 298 298 297 298 295 294 295 298 299 297 295 294 295 297 298 297 296 295 295 294 294 293 293 293 292 292 292 292 293 293 293 293 293 293 293 292 292 291 291 290 289 288 287 287 286 285 285 284 283 283 282 282 281 280 279
291 290 291 291 289 289 290 290 290 289 286 281 278 276 275 275 278 284 289 293 294 295 294 293 292 291 289 288 289 291 293 293 292 292 293 291 291 294 299 301 299 296 294 296 298 299 299 297 296 295 295 294 293 293 292 292 292 292 292 293 293 293 293 293 292 292 292 291 291 290 290 289 289 288 288 287 287 286 286 285 285 284 283 283 282 280
291 290 290 290 290 291 290 288 286 285 285 283 281 281 282 286 291 295 296 296 295 294 293 293 292 291 289 288 289 290 291 291 290 289 288 287 290 294 299 301 299 296 295 297 299 300 299 298 296 296 296 295 294 293 293 292 292 292 292 292 292 292 292 292 292 292 292 292 291 291 291 290 290 290 289 289 288 287 287 286 285 284 283 283 281 280
290 289 289 290 291 292 293 291 290 291 295 299 303 306 306 304 301 297 295 293 292 292 293 293 292 290 290 292 292 292 292 293 292 289 285 286 290 293 297 299 298 296 297 299 300 301 299 298 298 297 297 296 295 294 294 293 293 293 293 293 293 292 292 292 292 292 292 292 292 291 291 291 290 290 289 289 288 287 286 285 285 284 283 282 281 280
290 290 290 292 294 296 297 297 298 301 304 307 307 305 303 301 299 296 293 292 292 293 294 292 290 290 292 294 293 293 296 298 296 289 283 286 290 293 296 299 298 297 298 300 301 301 300 299 299 298 298 296 296 295 295 294 294 294 294 294 293 293 292 292 292 292 292 291 291 291 291 290 290 289 288 288 287 286 286 285 284 284 283 283 282 281
291 290 291 292 294 296 297 298 298 299 299 299 298 298 297 297 295 292 289 289 291 294 294 291 291 292 294 295 293 294 298 299 296 289 284 284 287 291 296 299 300 299 299 300 301 300 299 298 297 297 297 296 296 296 296 295 295 295 295 294 293 293 292 292 292 291 291 291 291 290 290 289 289 288 288 288 287 286 286 286 285 285 285 285 284 282
294 292 292 293 293 293 294 295 295 295 296 295 295 294 293 291 287 284 282 286 291 293 290 288 289 291 294 294 295 296 298 297 294 291 288 285 284 287 295 301 303 302 302 301 301 300 298 296 295 295 296 296 297 297 297 297 296 296 295 294 294 293 292 292 292 291 291 291 290 290 289 289 289 288 288 288 287 287 287 287 287 286 286 286 284 282
298 295 293 292 292 293 294 295 295 296 297 297 295 292 288 282 278 276 279 284 289 289 285 283 284 287 290 293 295 297 297 295 293 294 297 292 287 289 297 302 304 304 305 305 305 304 300 297 296 296 297 298 298 299 298 298 297 296 296 295 295 294 293 293 292 292 292 291 291 290 289 289 289 289 288 288 288 288 287 287 287 288 287 285 283 281
300 299 298 297 298 299 301 302 303 303 303 301 297 290 282 276 273 274 278 282 283 282 281 282 283 285 289 294 297 298 297 296 298 304 308 301 294 295 301 303 303 304 307 308 309 307 305 303 301 300 300 300 300 299 299 298 297 296 296 296 295 295 294 294 294 293 293 292 291 290 290 289 289 288 288 288 288 288 287 287 288 288 287 285 283 280
307 307 307 307 308 309 310 310 310 310 308 304 297 289 283 280 278 278 279 279 277 275 278 280 282 284 287 292 295 295 293 297 301 308 310 302 296 296 301 301 301 303 305 307 308 308 308 307 306 305 304 302 301 299 298 298 297 296 295 295 295 295 295 295 295 295 294 293 292 291 290 290 289 288 288 287 287 287 287 287 287 287 286 284 282 280
313 313 313 314 314 315 315 315 314 313 310 306 301 296 292 289 284 280 278 275 273 273 275 278 280 282 283 282 280 278 283 290 296 302 304 298 294 296 299 298 299 300 302 301 297 293 298 302 305 305 305 303 301 299 298 297 296 295 295 295 295 294 296 296 296 296 295 294 293 292 291 290 289 288 287 287 286 286 285 286 285 285 284 283 282 280
312 312 313 314 316 317 317 316 314 312 310 308 305 301 297 291 284 278 276 276 275 274 275 277 279 281 281 279 277 277 280 285 292 297 300 296 294 295 297 297 297 299 300 299 294 289 287 289 296 301 302 301 300 299 298 297 296 295 294 294 293 293 295 296 296 295 294 294 293 293 292 290 289 288 287 286 285 284 284 284 284 282 281 280 279 279
309 311 313 315 317 319 318 316 314 311 308 304 301 297 293 289 284 281 279 278 277 275 273 274 275 277 279 280 279 279 281 285 290 296 299 296 293 294 296 296 296 297 299 299 296 293 289 288 292 296 299 300 300 299 298 297 296 295 294 293 292 293 294 295 296 295 293 293 292 292 291 290 290 289 288 287 286 285 283 283 282 281 278 276 276 275
311 313 315 317 319 319 317 315 313 309 304 300 297 294 292 290 288 286 283 281 279 277 274 272 271 271 272 275 278 280 282 286 291 295 297 294 292 292 294 293 294 295 295 295 295 294 292 291 291 293 296 299 300 299 298 297 297 296 295 294 292 292 292 293 294 293 292 292 291 290 290 290 290 290 289 289 288 286 285 284 283 281 278 275 274 273
315 317 317 317 317 315 313 313 311 308 305 302 300 299 298 295 293 290 286 284 282 280 277 274 271 270 268 269 271 275 279 285 290 292 292 290 289 289 290 289 290 291 290 290 290 290 290 291 292 293 294 295 297 299 299 300 300 299 298 296 294 293 292 292 292 291 290 289 288 288 288 288 288 288 288 288 287 287 286 286 284 281 278 276 274 273
317 316 315 315 314 313 312 311 310 309 308 307 306 304 302 299 296 293 290 287 285 284 281 278 274 271 269 268 269 272 276 282 285 287 287 286 285 284 284 285 286 286 284 284 285 287 288 290 292 292 292 291 292 296 299 302 303 302 299 298 297 295 294 293 291 289 287 286 285 285 286 286 286 286 286 287 287 286 286 284 283 282 280 278 275 273
314 313 313 314 314 313 312 311 310 309 309 308 307 305 303 301 298 296 295 292 289 287 285 282 279 276 274 272 272 274 277 280 283 285 286 285 283 281 279 281 282 282 280 278 280 282 284 287 289 291 291 291 291 293 296 299 301 300 299 299 298 296 294 293 291 289 287 286 285 285 285 285 285 285 285 286 286 286 285 284 283 283 283 281 278 275
311 310 311 311 312 311 310 309 308 308 308 307 306 305 304 302 300 298 295 293 291 289 287 285 284 282 282 281 280 279 279 280 282 284 286 285 283 280 278 277 279 280 279 278 277 277 278 280 282 284 287 290 292 293 294 296 296 297 299 300 300 298 295 294 293 291 289 287 287 286 286 285 284 283 282 283 283 282 282 282 283 283 283 281 280 279
309 307 307 308 308 308 307 306 306 306 306 306 306 305 305 304 303 301 298 295 293 291 290 290 289 288 287 286 284 282 281 281 283 284 285 285 284 281 278 276 276 278 279 279 277 275 274 275 277 280 282 284 288 291 293 293 294 295 297 299 299 298 297 296 295 293 290 288 286 285 284 284 283 282 280 280 280 279 278 278 280 281 280 278 277 278
306 305 304 304 306 307 307 306 306 306 306 306 306 305 305 304 304 303 302 301 300 298 297 297 297 295 294 291 288 286 284 284 284 285 286 286 286 284 281 277 275 276 277 277 276 275 273 274 276 278 280 281 284 286 288 289 291 293 294 293 292 293 295 295 294 292 290 287 285 284 284 284 284 283 281 280 278 277 275 275 275 276 276 274 272 271
303 302 302 303 304 305 306 307 307 306 306 306 305 304 304 304 304 304 304 304 304 304 304 304 303 302 301 299 296 293 290 288 288 288 288 289 289 287 283 280 277 276 275 276 276 275 274 274 274 275 277 279 281 284 287 288 290 291 290 288 289 292 294 294 293 292 290 288 287 286 285 284 284 283 282 280 279 278 277 274 273 273 272 270 268 266
300 300 301 303 304 304 305 306 307 307 307 306 304 303 303 304 305 304 304 303 304 305 306 306 306 305 303 302 302 301 299 296 294 292 290 290 290 288 286 283 281 278 276 274 274 275 275 275 274 273 274 276 277 280 284 287 289 290 289 288 289 291 293 293 294 293 292 290 288 287 286 284 283 282 282 280 280 279 277 276 275 273 269 267 266 264
298 300 301 303 304 306 307 307 307 307 306 305 304 303 303 303 303 303 303 302 303 305 306 307 307 305 303 303 304 306 305 304 302 298 294 292 292 291 289 287 284 281 276 271 270 273 278 279 278 276 275 276 276 277 281 284 287 288 288 288 286 285 283 286 290 292 291 290 288 286 285 283 283 283 283 281 279 278 276 274 272 270 268 267 265 263
299 300 302 304 306 307 308 308 307 306 305 305 304 303 304 303 303 303 303 301 302 304 304 306 306 305 303 304 306 308 309 310 308 305 302 300 298 294 291 288 285 282 277 272 269 269 272 275 279 280 280 278 276 275 276 280 283 285 286 287 286 283 281 283 285 287 287 287 287 285 284 283 283 283 283 282 280 279 276 274 272 270 269 267 265 263
301 302 304 306 307 306 306 306 307 306 305 304 304 304 305 305 304 303 302 300 300 301 302 302 301 300 300 301 304 308 310 311 311 311 309 307 304 299 294 289 286 283 279 276 273 271 269 271 275 279 280 280 278 276 275 276 279 281 284 286 286 286 285 285 285 284 284 284 285 284 284 285 285 284 282 281 281 280 279 275 272 270 269 267 265 263
303 303 304 305 306 305 305 307 308 307 306 304 304 305 306 306 305 304 302 300 298 298 300 300 298 295 294 297 299 302 305 307 309 310 310 310 309 306 301 296 292 288 285 281 278 275 273 271 272 273 275 277 279 279 279 278 278 279 281 284 286 287 286 286 286 286 285 283 282 283 284 284 285 285 282 282 282 282 281 278 275 272 269 267 265 264
303 304 304 305 304 304 305 306 307 307 305 305 305 306 306 305 303 302 301 301 299 298 298 299 297 294 293 294 295 297 298 300 302 305 307 309 309 309 307 304 301 297 293 289 284 280 277 275 273 271 269 270 272 276 279 279 278 277 279 282 284 285 285 286 287 287 286 283 281 281 281 280 280 280 282 283 284 284 283 281 279 275 271 268 266 265
303 303 302 302 303 303 305 305 306 307 305 306 306 307 307 305 303 301 299 300 299 297 296 295 294 294 294 294 294 296 297 297 298 300 303 306 307 308 307 307 306 305 303 298 294 289 286 282 278 273 267 264 264 268 273 276 277 277 278 280 281 281 282 284 287 288 288 285 284 282 281 278 276 277 279 281 282 284 284 284 282 279 275 270 268 266
303 302 301 301 301 301 303 305 306 306 304 306 306 307 306 307 305 302 300 298 297 294 293 291 291 292 294 294 295 296 297 297 297 299 300 303 305 306 306 307 307 307 307 304 302 300 297 295 291 285 276 268 263 262 266 271 275 278 279 278 278 280 281 283 286 288 288 287 286 285 283 281 279 278 279 279 280 283 284 285 284 282 279 274 270 267
305 302 301 301 301 301 303 304 305 304 303 304 305 305 305 306 305 304 302 299 296 293 292 290 289 289 291 293 293 294 296 295 295 296 299 302 303 304 303 304 305 305 305 305 304 304 304 303 301 299 295 286 275 267 265 269 273 277 280 279 279 280 281 282 285 287 287 287 287 287 286 284 282 280 278 277 279 282 285 286 286 285 283 280 276 272
Height
825 825 825 824 824 824 823 824 824 823 822 822 820 819 819 818 818 818 818 818 817 817 815 814 813 812 811 810 809 809 808 808 807 807 806 805 804 803 802 801 800 799 798 797 797 796 795 795 794 793 793 792 792 791 790 789 789 788 787 787 786 786 785 784 784 783 783 782 782 781 780 780 779 778 778 777 777 777 776 776 775 775 775 774 774 773
824 824 823 823 823 823 823 823 823 822 821 820 818 817 817 817 817 817 817 817 817 816 815 813 812 811 810 808 808 807 807 806 806 805 804 803 802 801 800 799 798 797 796 796 795 794 793 793 792 792 791 790 790 789 788 787 787 786 786 785 784 784 783 782 782 781 781 780 779 779 778 778 777 777 776 776 776 775 775 774 774 773 773 772 772 771
822 822 822 822 822 822 822 821 821 820 819 818 817 816 816 816 816 816 816 816 815 815 813 812 811 809 808 807 806 805 805 804 804 803 802 802 800 799 798 797 796 795 794 793 793 792 792 791 790 790 789 788 788 787 786 786 785 784 784 783 782 782 781 780 780 779 778 778 777 777 776 776 775 775 774 774 773 773 772 772 772 771 770 770 769 769
821 821 821 821 821 821 821 820 819 818 817 816 816 815 816 816 816 816 816 815 814 813 812 811 810 808 807 806 804 804 803 802 802 801 801 800 798 797 796 795 794 793 792 792 791 790 790 789 788 788 787 787 786 785 784 784 783 782 782 781 780 779 779 778 777 777 776 776 775 774 774 773 773 772 772 772 771 771 770 770 769 768 768 768 767 767
820 820 820 820 820 819 819 818 817 817 816 815 815 815 815 815 815 815 814 814 813 812 811 810 808 807 806 804 803 802 802 801 800 799 799 797 797 795 794 793 792 792 791 790 789 789 788 787 787 786 785 785 784 783 782 782 781 780 780 779 778 777 777 776 775 774 774 773 772 772 772 771 771 770 770 769 769 768 768 767 767 766 766 765 765 764
819 819 819 819 819 818 817 817 816 815 815 814 814 815 815 814 814 814 813 812 812 811 809 808 807 806 804 803 802 801 800 799 798 797 797 796 794 793 792 792 791 790 789 788 787 787 786 786 785 784 783 783 782 781 780 780 779 778 777 777 776 775 774 774 773 772 772 771 770 770 769 769 768 768 767 767 767 766 766 765 765 764 764 763 763 762
818 818 818 818 817 817 816 815 815 814 814 814 814 814 814 813 813 812 812 811 810 809 808 807 806 804 803 802 800 799 798 797 797 796 795 794 793 792 791 790 789 788 787 787 786 785 785 784 783 782 782 781 780 779 778 777 777 776 775 774 773 773 772 771 771 770 769 768 768 767 767 766 766 765 765 765 764 764 763 763 762 762 762 761 761 760
817 816 817 816 816 815 815 814 814 814 814 814 813 813 812 812 812 811 811 810 809 808 807 805 804 803 802 801 799 798 797 796 795 794 793 792 792 790 790 789 788 787 786 785 784 784 783 782 781 780 780 779 778 777 776 775 774 773 773 772 771 770 769 769 768 767 767 766 766 765 764 764 763 763 762 762 762 761 761 761 760 760 759 759 758 758
816 815 815 815 815 814 814 813 813 813 813 813 813 812 812 811 810 810 809 809 808 807 806 804 803 801 800 799 798 797 796 796 795 794 792 792 790 789 788 787 787 786 785 784 783 782 781 780 779 778 777 776 775 774 773 773 772 771 770 769 768 768 767 766 766 765 764 764 763 762 762 762 761 761 760 760 759 759 759 758 758 757 757 757 756 756
815 814 814 814 814 813 813 812 812 812 812 812 812 812 811 810 809 809 808 807 807 806 805 803 802 800 798 798 797 796 795 794 793 792 792 790 789 788 787 786 785 784 783 782 781 780 779 778 777 776 775 774 773 772 771 770 769 768 768 767 766 765 765 764 763 762 762 761 761 760 760 759 759 758 758 757 757 757 756 756 755 755 754 754 753 753
813 813 813 813 812 812 812 812 812 811 811 811 811 810 810 810 809 808 806 805 804 804 803 802 801 799 798 797 796 795 794 793 792 791 790 788 787 786 785 784 783 782 781 780 779 777 777 776 775 773 772 771 770 769 769 768 767 766 765 765 764 763 762 762 761 760 760 759 759 758 757 757 757 756 756 755 755 754 754 753 753 752 752 752 751 751
813 812 812 812 812 812 811 811 811 810 810 810 810 809 809 809 809 808 806 804 803 802 801 800 800 799 797 796 795 794 793 792 790 789 788 787 786 785 783 782 781 780 779 778 777 775 774 773 772 771 770 769 768 767 766 765 765 764 763 762 761 761 760 759 759 758 758 757 757 756 755 755 754 754 753 752 752 752 751 751 750 750 749 749 748 748
812 812 812 811 811 811 810 810 809 809 809 809 809 809 808 808 807 807 806 804 802 802 800 799 798 797 797 795 794 793 792 790 789 788 787 786 785 783 782 781 780 779 777 776 775 773 772 771 770 769 768 767 766 765 764 763 762 761 761 760 759 759 758 757 757 756 756 755 754 754 753 752 752 751 751 750 750 749 749 748 747 747 747 746 746 745
811 811 811 810 810 810 809 809 809 808 808 808 808 808 807 807 806 806 804 803 802 801 800 798 797 796 795 794 793 792 791 789 788 787 786 785 784 783 782 780 779 778 776 775 773 772 771 770 768 767 766 764 763 762 762 761 760 759 759 758 757 757 756 755 755 754 753 753 752 752 751 750 749 749 748 748 747 747 746 745 745 744 744 743 743 742
810 810 810 809 809 808 808 808 808 808 808 808 807 807 806 806 805 804 803 802 801 800 799 797 796 795 794 792 792 791 790 788 787 786 785 784 783 782 781 779 778 776 775 773 772 770 769 768 767 765 764 762 762 761 760 759 758 757 757 756 755 755 754 753 752 752 751 750 750 749 748 748 747 747 746 745 745 744 743 743 742 742 741 741 740 740
809 809 809 808 807 807 807 807 807 807 807 807 807 806 805 804 804 803 802 801 800 799 798 797 795 793 792 791 790 790 789 788 787 785 784 782 781 781 780 778 777 775 773 772 770 769 768 767 765 764 762 761 760 759 758 757 756 755 754 754 753 752 752 751 750 749 749 748 747 747 746 745 745 744 743 743 742 742 741 740 740 739 738 738 737 737
808 808 808 807 807 807 807 807 807 807 806 806 805 805 804 804 803 802 802 801 799 798 797 796 795 792 790 788 788 788 788 787 786 784 783 781 780 779 778 777 776 773 772 770 769 768 767 765 764 762 761 759 757 757 756 755 754 753 752 752 751 750 749 748 748 747 746 746 745 744 743 743 742 742 741 740 739 739 738 738 737 737 736 735 735 734
807 807 807 807 807 806 806 806 806 806 805 805 804 804 803 803 802 801 801 800 799 797 797 796 794 793 790 788 787 787 787 786 785 783 782 780 778 777 777 776 774 772 771 769 767 767 765 764 762 761 759 757 756 755 754 752 752 751 750 749 748 748 747 746 745 745 744 743 742 742 741 740 740 739 738 737 737 736 736 735 734 734 733 733 732 732
806 807 807 806 806 806 805 805 805 805 804 804 803 802 802 801 801 800 799 798 797 797 796 795 793 792 791 788 786 785 786 785 784 782 781 779 777 775 775 774 773 771 769 767 766 765 764 762 760 758 757 755 754 753 752 751 749 748 748 747 746 746 745 744 743 742 742 741 740 739 738 737 737 736 736 735 734 734 733 732 732 731 731 730 729 729
806 806 806 806 805 804 804 804 804 804 803 803 802 802 801 800 799 798 797 797 796 795 795 794 792 791 789 787 785 784 785 784 783 782 780 778 775 774 773 772 771 769 768 766 765 763 762 760 758 756 755 753 752 751 750 748 747 747 746 745 744 743 742 742 741 740 739 738 737 737 736 735 734 733 733 732 732 731 730 730 729 728 728 727 727 726
805 805 805 805 804 804 803 803 803 803 803 802 801 801 799 798 797 797 796 795 795 794 793 792 791 789 788 787 784 783 784 783 782 781 779 777 774 772 772 771 770 768 766 764 763 762 760 758 757 755 753 752 750 749 748 747 746 744 743 743 742 741 740 739 738 737 737 736 735 734 733 732 732 731 730 730 729 728 727 727 726 726 725 724 724 723
804 803 803 803 803 803 802 802 802 802 801 801 800 799 798 797 796 795 795 794 793 793 792 791 790 788 787 786 783 782 782 782 782 780 778 776 772 770 770 769 768 767 765 763 761 760 759 757 755 753 751 750 748 747 746 745 743 742 741 740 739 739 738 737 736 735 734 733 732 731 730 730 729 728 727 727 726 725 725 724 723 723 722 722 721 720
802 802 802 802 802 802 801 801 800 800 799 799 798 797 796 796 795 794 794 793 792 792 791 789 788 787 786 784 782 781 781 781 780 779 778 775 771 768 768 768 767 765 763 761 760 758 757 755 753 751 749 748 747 745 744 742 741 740 739 738 737 736 735 734 733 732 732 731 730 729 728 727 726 725 725 724 723 722 722 721 721 720 719 719 718 717
801 801 801 801 800 800 800 799 799 798 797 797 796 795 795 795 794 794 793 792 791 790 789 788 787 785 783 782 781 780 779 779 779 778 777 774 771 768 767 767 766 763 761 760 758 757 755 753 751 749 748 746 744 743 742 741 739 738 737 736 735 734 733 732 731 730 729 728 727 726 725 724 723 722 722 721 720 720 719 718 718 717 717 716 715 714
800 800 799 799 799 799 798 798 797 797 796 796 796 795 794 794 793 792 792 791 790 789 788 787 785 783 782 781 779 778 777 777 777 777 776 773 769 767 766 766 764 762 759 758 757 756 753 751 749 747 746 744 742 741 740 738 737 736 735 733 732 731 730 729 728 727 727 726 725 724 723 722 721 720 719 718 717 717 716 715 715 714 713 713 712 712
799 798 798 798 798 797 797 797 797 796 796 795 795 794 793 792 792 791 790 789 788 788 787 786 784 782 781 779 778 777 776 776 776 775 774 772 769 766 764 764 763 761 758 756 755 754 752 749 747 745 744 742 740 739 737 736 735 734 732 731 730 729 728 727 726 725 724 723 722 721 720 719 718 717 717 716 715 714 713 713 712 711 711 710 709 708
797 797 797 797 796 796 796 795 795 794 794 794 793 793 792 792 790 789 788 787 787 787 786 785 783 781 780 778 777 775 775 774 774 773 772 771 768 765 763 762 761 759 757 755 753 752 750 748 745 743 742 740 738 737 735 734 733 732 730 729 727 726 725 724 723 722 721 720 719 718 717 717 716 715 714 713 712 712 711 710 709 708 708 707 706 705
796 796 795 795 795 794 794 794 793 793 792 792 791 791 791 790 789 788 787 786 786 786 785 784 782 781 779 777 775 774 773 773 772 772 771 770 767 764 762 761 760 758 756 753 751 749 748 746 743 741 739 738 736 735 733 732 731 729 728 726 725 724 723 722 721 720 718 717 717 716 715 714 713 712 711 710 710 709 708 707 707 706 705 704 703 702
795 794 794 794 793 793 792 792 791 791 790 789 789 789 789 788 787 787 786 785 785 785 784 782 782 780 779 777 775 773 772 771 770 770 769 768 766 763 761 760 759 757 755 752 749 747 745 743 742 740 738 736 735 733 732 730 728 727 725 723 722 721 720 719 718 717 716 715 714 713 712 711 710 710 709 708 707 706 705 705 704 703 702 702 701 699
793 793 793 792 792 792 791 790 789 788 787 787 787 787 787 786 786 785 785 784 784 784 782 781 780 779 778 777 774 772 770 769 769 769 768 767 765 762 760 759 757 756 755 753 749 744 741 740 739 738 737 735 733 732 730 728 727 725 723 721 720 718 717 716 715 714 713 712 711 710 709 709 708 707 706 705 704 704 703 702 702 701 700 699 698 697
792 791 791 790 790 789 788 788 787 786 786 785 785 785 785 785 784 784 783 783 783 782 782 780 779 778 778 777 774 771 768 767 767 768 767 766 764 761 759 758 757 755 755 754 751 746 740 736 735 736 735 734 732 730 728 727 725 723 721 719 717 716 715 714 713 712 711 710 709 708 707 706 705 704 703 702 702 701 700 700 700 699 698 697 696 695
790 789 789 788 788 787 787 786 785 785 784 784 784 783 783 783 783 782 782 782 782 781 780 779 778 777 777 776 774 771 768 766 766 767 767 765 762 760 759 757 756 754 753 753 752 749 744 738 734 732 733 732 730 728 726 725 723 722 720 718 716 714 712 712 711 710 708 707 706 705 704 703 702 701 700 700 699 698 697 697 697 697 696 695 693 692
789 788 787 787 786 786 785 785 784 784 783 783 782 782 782 782 781 781 781 780 780 780 779 778 777 776 775 774 772 770 767 766 765 766 765 764 762 759 758 757 755 753 752 751 751 749 747 741 736 733 731 729 728 726 724 722 721 720 718 717 714 712 711 710 709 707 706 705 703 702 701 700 699 698 697 697 696 695 695 694 694 694 694 693 692 690
788 787 787 786 785 784 784 783 783 782 782 782 781 781 781 780 780 780 779 779 778 778 777 777 776 775 774 772 770 768 765 764 764 764 764 763 761 759 757 755 754 752 751 749 748 747 744 741 738 734 730 727 725 724 722 721 719 718 717 715 713 711 709 708 707 706 704 702 701 699 698 697 696 695 694 693 693 692 692 691 691 691 691 691 690 688
787 786 785 785 784 783 783 782 782 782 781 781 780 780 779 779 778 778 777 777 777 776 776 775 774 774 772 771 769 766 763 762 762 763 763 762 760 758 756 754 753 752 750 748 747 745 742 739 737 734 731 727 723 721 720 719 717 716 715 713 712 710 708 707 705 704 702 701 699 697 696 695 693 692 691 690 690 689 689 688 688 688 688 688 687 687
786 785 785 784 783 783 782 782 781 781 780 780 779 779 778 777 777 777 776 775 775 774 774 773 772 772 771 769 767 765 762 761 760 761 761 760 759 757 755 753 752 751 749 747 745 743 741 738 735 733 731 727 723 719 717 716 716 714 713 711 710 708 707 705 704 702 701 699 697 695 694 693 692 690 689 688 687 687 686 686 686 685 685 685 684 684
785 785 784 783 783 782 782 781 780 780 779 778 778 777 777 776 776 775 774 773 773 772 772 771 770 769 768 767 765 763 761 760 759 758 758 758 757 756 754 752 750 749 748 746 744 742 740 737 734 731 729 727 723 719 715 714 713 712 711 709 707 706 704 703 702 701 699 697 695 693 692 691 690 688 687 686 685 684 684 683 682 682 682 681 681 681
785 784 783 783 782 782 781 780 779 779 778 777 777 776 775 775 774 773 772 772 771 770 769 768 767 766 765 764 763 761 760 758 757 756 756 756 755 754 752 750 748 747 746 745 743 741 739 737 733 730 727 724 722 719 716 714 712 710 708 707 705 704 702 701 700 698 697 695 693 692 690 689 688 687 685 684 683 682 681 680 679 679 678 678 677 677
784 783 783 782 782 781 780 779 778 778 777 776 776 775 774 773 772 772 771 770 769 768 767 767 765 764 762 761 760 759 757 756 755 754 753 753 752 752 751 749 747 745 744 743 741 740 738 736 733 730 727 723 720 717 715 713 711 709 706 704 702 701 700 699 698 697 695 693 692 690 688 687 686 685 683 682 681 680 679 678 677 676 676 675 674 673
783 783 782 782 781 780 779 779 778 777 776 775 774 773 772 772 771 770 769 769 768 767 766 765 763 762 760 759 758 757 755 754 753 752 751 750 750 749 748 747 745 743 742 740 739 738 736 734 732 729 726 723 720 717 713 711 709 707 706 703 700 697 696 696 695 694 693 691 690 688 686 685 683 682 681 680 679 678 677 676 675 674 673 673 672 671
783 782 781 781 780 779 778 778 777 776 775 774 773 772 772 771 770 769 768 767 766 765 764 763 762 760 758 757 756 754 753 752 751 750 749 748 747 747 746 745 743 741 740 738 737 736 734 732 730 727 724 722 719 716 713 710 707 706 705 703 700 696 694 693 693 692 690 689 687 686 684 683 681 680 679 677 677 676 675 674 672 672 671 671 670 669
782 781 781 780 779 778 777 777 776 775 774 773 772 772 771 770 769 768 767 766 765 764 762 762 760 758 756 754 753 752 751 750 748 747 747 746 745 744 743 742 741 739 738 737 735 733 731 730 728 725 722 720 718 715 711 707 705 704 703 701 698 695 692 690 690 689 688 687 685 684 682 681 679 677 676 675 674 673 672 671 670 669 668 667 667 666
781 780 780 779 778 777 776 776 775 774 773 772 772 771 770 769 768 767 766 765 763 762 761 760 759 757 755 752 750 749 748 747 747 746 745 743 742 742 741 740 738 737 736 735 732 730 728 727 725 723 720 718 717 714 710 706 703 702 700 699 697 695 692 688 686 686 686 685 683 682 680 678 677 675 673 672 671 670 669 668 667 666 665 665 664 662
780 779 779 778 777 776 776 775 774 773 772 772 771 770 769 768 767 767 765 764 763 762 760 759 758 756 754 751 749 747 745 745 744 743 742 742 741 739 738 737 736 735 734 732 730 728 726 724 722 720 718 717 715 712 708 705 702 699 697 696 696 694 691 687 685 684 683 682 680 679 677 676 674 672 671 670 668 667 666 665 664 662 662 661 660 659
779 779 778 777 777 776 775 774 773 772 772 771 770 769 768 767 767 766 765 763 762 761 759 758 757 755 753 750 748 746 744 742 742 741 740 739 738 737 736 735 734 732 731 730 728 726 724 722 719 717 715 714 712 710 707 703 700 697 695 693 692 691 688 686 684 682 681 679 677 676 674 673 672 670 668 667 665 664 663 662 661 659 658 657 656 656
779 778 777 777 776 775 774 773 772 772 771 770 769 768 767 766 765 764 763 762 761 760 758 757 757 755 752 750 747 745 743 741 739 738 737 737 736 735 734 733 732 730 729 727 725 723 722 719 717 714 713 711 709 706 704 702 699 696 693 691 689 688 686 683 682 681 679 677 675 673 672 671 670 668 666 664 662 661 659 658 657 656 654 653 652 652
778 777 776 776 775 774 773 772 771 771 770 769 768 767 766 765 764 763 762 761 760 759 757 757 755 754 752 750 747 746 743 741 738 736 735 734 733 732 732 731 729 728 727 725 722 721 719 717 715 713 711 709 706 702 700 698 697 694 691 689 687 686 683 681 679 678 677 675 672 670 669 668 667 665 663 661 659 657 656 655 654 653 652 650 649 648
777 776 776 775 774 773 772 771 770 769 768 767 767 766 765 764 763 762 761 760 759 758 757 755 754 752 751 749 747 746 744 741 738 736 734 732 731 730 729 728 727 725 724 722 720 718 716 714 712 711 709 707 704 700 697 695 693 692 690 687 686 683 681 678 676 675 674 672 670 668 667 666 665 662 660 658 656 654 652 651 650 649 648 647 646 645
776 775 775 774 773 772 771 770 769 768 767 767 765 764 763 763 762 761 760 759 758 757 756 754 753 751 749 747 746 744 742 740 738 736 733 732 730 728 727 725 724 722 721 719 717 715 713 711 709 707 706 705 702 698 694 692 690 689 687 686 684 682 679 676 673 672 671 669 667 666 665 663 662 660 658 656 653 651 649 647 646 646 645 644 643 642
775 775 774 773 772 771 770 769 768 767 767 765 764 763 762 762 761 760 759 758 757 756 754 753 752 750 748 746 744 742 741 739 737 734 732 731 729 727 726 724 722 721 718 716 714 712 710 707 705 703 702 701 699 697 693 690 687 686 685 683 681 679 677 674 671 669 668 667 665 663 662 661 659 658 656 654 651 648 645 643 642 642 642 641 640 638
774 773 773 772 771 770 769 768 767 767 765 764 763 762 761 760 759 758 757 757 755 754 753 751 750 749 747 745 742 741 739 738 736 733 731 730 728 727 725 723 721 719 717 714 712 710 707 705 701 698 697 697 696 695 692 688 686 683 682 680 678 677 675 672 669 667 666 664 662 661 659 658 657 655 654 652 649 646 643 640 639 638 638 638 637 636